INTELSAT 14 (IS-14)

Last updated on Thu Apr 09 2026 00:02:48 GMT+0000 (Coordinated Universal Time)

1 36097U 09064A 26098.44573256 -.00000271 00000+0 00000+0 0 9994 2 36097 0.0155 248.6298 0002692 142.7477 280.8088 1.00271618 59901
UTC large
Height (km)
Speed (km/s)
/
Latitude / Longitude
Inclination (degrees)
Orbital Period (minutes)
Azimuth
Elevation
Range (km)
Doppler Factor

Next 0 passes for location: London (51.5072 / 0.1276)

Sorry there are no passes over London.